Time,TemperatureF,DewpointF,PressureIn,WindDirection,WindDirectionDegrees,WindSpeedMPH,WindSpeedGustMPH,Humidity,HourlyPrecipIn,Conditions,Clouds,dailyrainin,SoftwareType,DateUTC
2013-02-12 00:00:00,27.5,20.3,18.26,NW,318,0.0,0.0,74,0.00,,,0.00,WUHU216WMR968SP,2013-02-12 05:00:00,
2013-02-12 00:05:00,27.3,20.1,18.26,NW,318,0.0,0.0,74,0.00,,,0.00,WUHU216WMR968SP,2013-02-12 05:05:00,
2013-02-12 00:10:00,27.1,20.0,18.26,NW,318,0.0,0.0,74,0.00,,,0.00,WUHU216WMR968SP,2013-02-12 05:10:00,
2013-02-12 00:15:00,27.1,20.0,18.26,NW,318,0.0,0.0,74,0.00,,,0.00,WUHU216WMR968SP,2013-02-12 05:15:00,
2013-02-12 00:20:00,27.0,19.5,18.26,NW,318,0.0,0.0,73,0.00,,,0.00,WUHU216WMR968SP,2013-02-12 05:20:00,
2013-02-12 00:25:00,27.0,19.5,18.26,NW,318,0.0,0.0,73,0.00,,,0.00,WUHU216WMR968SP,2013-02-12 05:25:00,
2013-02-12 00:30:00,27.0,19.5,18.26,NW,318,0.0,0.0,73,0.00,,,0.00,WUHU216WMR968SP,2013-02-12 05:30:00,
2013-02-12 00:35:00,27.1,19.6,18.26,NW,318,0.0,0.0,73,0.00,,,0.00,WUHU216WMR968SP,2013-02-12 05:35:00,
2013-02-12 00:40:00,27.3,19.8,18.26,NW,318,0.0,0.0,73,0.00,,,0.00,WUHU216WMR968SP,2013-02-12 05:40:00,
2013-02-12 00:45:00,27.5,20.0,18.26,NW,318,0.0,0.0,73,0.00,,,0.00,WUHU216WMR968SP,2013-02-12 05:45:00,
2013-02-12 00:50:00,27.7,20.2,18.26,NW,318,0.0,0.0,73,0.00,,,0.00,WUHU216WMR968SP,2013-02-12 05:50:00,
2013-02-12 00:55:00,27.9,20.4,18.26,NW,318,0.0,0.0,73,0.00,,,0.00,WUHU216WMR968SP,2013-02-12 05:55:00,
2013-02-12 01:00:00,27.9,20.4,18.26,NW,318,0.0,0.0,73,0.00,,,0.00,WUHU216WMR968SP,2013-02-12 06:00:00,
2013-02-12 01:05:00,27.9,20.4,18.26,NW,318,0.0,0.0,73,0.00,,,0.00,WUHU216WMR968SP,2013-02-12 06:05:00,
2013-02-12 01:10:00,28.0,20.5,18.26,NW,318,0.0,0.0,73,0.00,,,0.00,WUHU216WMR968SP,2013-02-12 06:10:00,
2013-02-12 01:15:00,28.2,20.7,18.26,NW,318,0.0,0.0,73,0.00,,,0.00,WUHU216WMR968SP,2013-02-12 06:15:00,
2013-02-12 01:20:00,28.0,20.5,18.26,NW,318,0.0,0.0,73,0.00,,,0.00,WUHU216WMR968SP,2013-02-12 06:20:00,
2013-02-12 01:25:00,27.9,20.4,18.26,NW,318,0.0,0.0,73,0.00,,,0.00,WUHU216WMR968SP,2013-02-12 06:25:00,
2013-02-12 01:31:00,27.7,20.2,18.26,NW,318,0.0,0.0,73,0.00,,,0.00,WUHU216WMR968SP,2013-02-12 06:31:00,
2013-02-12 01:36:00,27.9,20.4,18.26,NW,318,0.0,0.0,73,0.00,,,0.00,WUHU216WMR968SP,2013-02-12 06:36:00,
2013-02-12 01:41:00,27.7,20.2,18.26,NW,325,0.0,0.0,73,0.00,,,0.00,WUHU216WMR968SP,2013-02-12 06:41:00,
2013-02-12 01:46:00,27.9,20.7,18.26,NW,320,0.0,0.0,74,0.00,,,0.00,WUHU216WMR968SP,2013-02-12 06:46:00,
2013-02-12 01:51:00,27.9,20.7,18.26,SE,125,0.0,0.0,74,0.00,,,0.00,WUHU216WMR968SP,2013-02-12 06:51:00,
2013-02-12 01:56:00,27.5,20.3,18.26,SE,125,0.0,0.0,74,0.00,,,0.00,WUHU216WMR968SP,2013-02-12 06:56:00,
2013-02-12 02:01:00,27.3,20.1,18.26,SE,133,0.0,0.0,74,0.00,,,0.00,WUHU216WMR968SP,2013-02-12 07:01:00,
2013-02-12 02:06:00,27.3,20.1,18.26,NNW,346,0.0,0.0,74,0.00,,,0.00,WUHU216WMR968SP,2013-02-12 07:06:00,
2013-02-12 02:11:00,27.1,20.0,18.26,NNW,346,0.0,0.0,74,0.00,,,0.00,WUHU216WMR968SP,2013-02-12 07:11:00,
2013-02-12 02:16:00,27.7,20.5,18.26,NNW,330,0.0,0.0,74,0.00,,,0.00,WUHU216WMR968SP,2013-02-12 07:16:00,
2013-02-12 02:21:00,29.3,22.4,18.26,NW,316,0.0,0.0,75,0.00,,,0.00,WUHU216WMR968SP,2013-02-12 07:21:00,
2013-02-12 02:26:00,31.1,24.1,18.26,NW,326,0.0,0.0,75,0.00,,,0.00,WUHU216WMR968SP,2013-02-12 07:26:00,
2013-02-12 02:31:00,31.6,24.6,18.26,NW,316,0.0,0.0,75,0.00,,,0.00,WUHU216WMR968SP,2013-02-12 07:31:00,
2013-02-12 02:36:00,32.0,25.0,18.26,NW,318,0.0,0.0,75,0.00,,,0.00,WUHU216WMR968SP,2013-02-12 07:36:00,
2013-02-12 02:41:00,32.0,25.0,18.26,NW,320,0.0,0.0,75,0.00,,,0.00,WUHU216WMR968SP,2013-02-12 07:41:00,
2013-02-12 02:46:00,31.8,24.8,18.26,NW,307,0.0,0.0,75,0.00,,,0.00,WUHU216WMR968SP,2013-02-12 07:46:00,
2013-02-12 02:51:00,32.0,25.0,18.26,NW,317,0.0,0.0,75,0.00,,,0.00,WUHU216WMR968SP,2013-02-12 07:51:00,
2013-02-12 02:56:00,31.8,24.8,18.26,NW,320,0.0,0.0,75,0.00,,,0.00,WUHU216WMR968SP,2013-02-12 07:56:00,
2013-02-12 03:01:00,31.1,23.8,18.26,NW,317,0.0,0.0,74,0.00,,,0.00,WUHU216WMR968SP,2013-02-12 08:01:00,
2013-02-12 03:06:00,30.9,23.6,18.26,NW,317,0.0,0.0,74,0.00,,,0.00,WUHU216WMR968SP,2013-02-12 08:06:00,
2013-02-12 03:11:00,31.1,23.8,18.26,NW,309,0.0,0.0,74,0.00,,,0.00,WUHU216WMR968SP,2013-02-12 08:11:00,
2013-02-12 03:16:00,30.9,23.6,18.26,NW,312,0.0,0.0,74,0.00,,,0.00,WUHU216WMR968SP,2013-02-12 08:16:00,
2013-02-12 03:21:00,30.9,23.6,18.26,NW,315,0.0,0.0,74,0.00,,,0.00,WUHU216WMR968SP,2013-02-12 08:21:00,
2013-02-12 03:26:00,30.7,23.4,18.26,NW,325,0.0,0.0,74,0.00,,,0.00,WUHU216WMR968SP,2013-02-12 08:26:00,
2013-02-12 03:31:00,31.3,24.0,18.26,WNW,286,0.0,0.0,74,0.00,,,0.00,WUHU216WMR968SP,2013-02-12 08:31:00,
2013-02-12 03:36:00,31.6,24.3,18.26,NW,316,0.0,0.0,74,0.00,,,0.00,WUHU216WMR968SP,2013-02-12 08:36:00,
2013-02-12 03:41:00,31.6,24.0,18.26,NW,317,0.0,0.0,73,0.00,,,0.00,WUHU216WMR968SP,2013-02-12 08:41:00,
2013-02-12 03:46:00,31.6,24.0,18.26,NW,315,0.0,0.0,73,0.00,,,0.00,WUHU216WMR968SP,2013-02-12 08:46:00,
2013-02-12 03:51:00,32.0,24.0,18.26,NNW,328,0.0,0.0,72,0.00,,,0.00,WUHU216WMR968SP,2013-02-12 08:51:00,
2013-02-12 03:56:00,32.4,24.4,18.26,NW,313,0.0,0.0,72,0.00,,,0.00,WUHU216WMR968SP,2013-02-12 08:56:00,
2013-02-12 04:01:00,32.7,24.1,18.26,NW,304,0.0,0.0,70,0.00,,,0.00,WUHU216WMR968SP,2013-02-12 09:01:00,
2013-02-12 04:06:00,32.9,23.9,18.26,WNW,302,0.0,0.0,69,0.00,,,0.00,WUHU216WMR968SP,2013-02-12 09:06:00,
2013-02-12 04:11:00,32.9,23.6,18.26,WNW,303,0.0,0.0,68,0.00,,,0.00,WUHU216WMR968SP,2013-02-12 09:11:00,
2013-02-12 04:16:00,33.1,23.8,18.26,WNW,295,0.0,0.0,68,0.00,,,0.00,WUHU216WMR968SP,2013-02-12 09:16:00,
2013-02-12 04:21:00,33.1,23.4,18.26,NW,324,0.0,0.0,67,0.00,,,0.00,WUHU216WMR968SP,2013-02-12 09:21:00,
2013-02-12 04:26:00,33.1,23.0,18.26,NW,310,0.0,0.0,66,0.00,,,0.00,WUHU216WMR968SP,2013-02-12 09:26:00,
2013-02-12 04:31:00,32.7,22.3,18.26,NW,320,0.0,0.0,65,0.00,,,0.00,WUHU216WMR968SP,2013-02-12 09:31:00,
2013-02-12 04:36:00,32.7,22.7,18.26,NW,305,0.0,0.0,66,0.00,,,0.00,WUHU216WMR968SP,2013-02-12 09:36:00,
2013-02-12 04:41:00,33.1,22.7,18.26,NW,313,0.0,0.0,65,0.00,,,0.00,WUHU216WMR968SP,2013-02-12 09:41:00,
2013-02-12 04:46:00,33.3,22.9,18.26,NW,304,0.0,0.0,65,0.00,,,0.00,WUHU216WMR968SP,2013-02-12 09:46:00,
2013-02-12 04:51:00,33.4,22.2,18.26,NW,323,0.0,0.0,63,0.00,,,0.00,WUHU216WMR968SP,2013-02-12 09:51:00,
2013-02-12 04:56:00,33.6,22.0,18.26,NW,307,0.0,0.0,62,0.00,,,0.00,WUHU216WMR968SP,2013-02-12 09:56:00,
2013-02-12 05:01:00,33.8,21.4,18.26,NW,305,0.0,0.0,60,0.00,,,0.00,WUHU216WMR968SP,2013-02-12 10:01:00,
2013-02-12 05:06:00,33.8,21.0,18.26,NW,313,0.0,0.0,59,0.00,,,0.00,WUHU216WMR968SP,2013-02-12 10:06:00,
2013-02-12 05:11:00,33.6,21.2,18.26,NW,307,0.0,0.0,60,0.00,,,0.00,WUHU216WMR968SP,2013-02-12 10:11:00,
2013-02-12 05:16:00,33.4,21.0,18.26,NW,314,0.0,0.0,60,0.00,,,0.00,WUHU216WMR968SP,2013-02-12 10:16:00,
2013-02-12 05:21:00,33.4,20.6,18.26,NW,304,0.0,0.0,59,0.00,,,0.00,WUHU216WMR968SP,2013-02-12 10:21:00,
2013-02-12 05:26:00,33.4,20.6,18.26,NW,310,0.0,0.0,59,0.00,,,0.00,WUHU216WMR968SP,2013-02-12 10:26:00,
2013-02-12 05:31:00,33.4,20.6,18.26,NW,320,0.0,0.0,59,0.00,,,0.00,WUHU216WMR968SP,2013-02-12 10:31:00,
2013-02-12 05:36:00,33.3,20.6,18.26,NW,310,0.0,0.0,59,0.00,,,0.00,WUHU216WMR968SP,2013-02-12 10:36:00,
2013-02-12 05:41:00,33.4,20.6,18.26,NW,313,0.0,0.0,59,0.00,,,0.00,WUHU216WMR968SP,2013-02-12 10:41:00,
2013-02-12 05:46:00,33.4,20.6,18.26,NW,311,0.0,0.0,59,0.00,,,0.00,WUHU216WMR968SP,2013-02-12 10:46:00,
2013-02-12 05:51:00,33.1,20.4,18.26,NW,317,0.0,0.0,59,0.00,,,0.00,WUHU216WMR968SP,2013-02-12 10:51:00,
2013-02-12 05:56:00,32.7,20.0,18.26,NW,317,0.0,0.0,59,0.00,,,0.00,WUHU216WMR968SP,2013-02-12 10:56:00,
2013-02-12 06:01:00,32.4,20.5,18.26,NW,312,0.0,0.0,61,0.00,,,0.00,WUHU216WMR968SP,2013-02-12 11:01:00,
2013-02-12 06:06:00,32.2,20.7,18.26,NW,325,0.0,0.0,62,0.00,,,0.00,WUHU216WMR968SP,2013-02-12 11:06:00,
2013-02-12 06:11:00,31.6,20.1,18.26,NW,322,0.0,0.0,62,0.00,,,0.00,WUHU216WMR968SP,2013-02-12 11:11:00,
2013-02-12 06:16:00,31.1,20.0,18.26,NW,322,0.0,0.0,63,0.00,,,0.00,WUHU216WMR968SP,2013-02-12 11:16:00,
2013-02-12 06:21:00,30.9,20.2,18.26,NW,320,0.0,0.0,64,0.00,,,0.00,WUHU216WMR968SP,2013-02-12 11:21:00,
2013-02-12 06:26:00,30.6,20.3,18.26,NW,311,0.0,0.0,65,0.00,,,0.00,WUHU216WMR968SP,2013-02-12 11:26:00,
2013-02-12 06:31:00,30.6,20.7,18.26,NW,321,0.0,0.0,66,0.00,,,0.00,WUHU216WMR968SP,2013-02-12 11:31:00,
2013-02-12 06:36:00,30.6,20.7,18.26,NW,314,0.0,0.0,66,0.00,,,0.00,WUHU216WMR968SP,2013-02-12 11:36:00,
2013-02-12 06:41:00,30.7,21.1,18.26,NW,305,0.0,0.0,67,0.00,,,0.00,WUHU216WMR968SP,2013-02-12 11:41:00,
2013-02-12 06:46:00,30.6,21.0,18.26,NW,322,0.0,0.0,67,0.00,,,0.00,WUHU216WMR968SP,2013-02-12 11:46:00,
2013-02-12 06:51:00,30.6,21.0,18.26,NW,322,0.0,0.0,67,0.00,,,0.00,WUHU216WMR968SP,2013-02-12 11:51:00,
2013-02-12 06:56:00,30.2,21.0,18.26,NW,322,0.0,0.0,68,0.00,,,0.00,WUHU216WMR968SP,2013-02-12 11:56:00,
2013-02-12 07:01:00,29.8,20.6,18.26,NW,307,0.0,0.0,68,0.00,,,0.00,WUHU216WMR968SP,2013-02-12 12:01:00,
2013-02-12 07:06:00,29.7,20.1,18.26,NW,307,0.0,0.0,67,0.00,,,0.00,WUHU216WMR968SP,2013-02-12 12:06:00,
2013-02-12 07:11:00,29.7,20.5,18.26,NW,307,0.0,0.0,68,0.00,,,0.00,WUHU216WMR968SP,2013-02-12 12:11:00,
2013-02-12 07:16:00,29.5,20.3,18.26,NW,307,0.0,0.0,68,0.00,,,0.00,WUHU216WMR968SP,2013-02-12 12:16:00,
2013-02-12 07:21:00,29.1,19.9,18.26,NW,326,0.0,0.0,68,0.00,,,0.00,WUHU216WMR968SP,2013-02-12 12:21:00,
2013-02-12 07:26:00,29.3,20.1,18.26,NW,316,0.0,0.0,68,0.00,,,0.00,WUHU216WMR968SP,2013-02-12 12:26:00,
2013-02-12 07:31:00,29.7,20.8,18.26,NW,307,0.0,0.0,69,0.00,,,0.00,WUHU216WMR968SP,2013-02-12 12:31:00,
2013-02-12 07:36:00,29.8,20.9,18.26,NW,324,0.0,0.0,69,0.00,,,0.00,WUHU216WMR968SP,2013-02-12 12:36:00,
2013-02-12 07:41:00,29.8,20.9,18.26,NW,324,0.0,0.0,69,0.00,,,0.00,WUHU216WMR968SP,2013-02-12 12:41:00,
2013-02-12 07:46:00,30.0,21.1,18.26,NW,319,0.0,0.0,69,0.00,,,0.00,WUHU216WMR968SP,2013-02-12 12:46:00,
2013-02-12 07:51:00,30.4,21.5,18.26,NW,321,0.0,0.0,69,0.00,,,0.00,WUHU216WMR968SP,2013-02-12 12:51:00,
2013-02-12 07:56:00,30.6,21.7,18.26,NW,321,0.0,0.0,69,0.00,,,0.00,WUHU216WMR968SP,2013-02-12 12:56:00,
2013-02-12 08:01:00,30.7,21.5,18.26,NW,321,0.0,0.0,68,0.00,,,0.00,WUHU216WMR968SP,2013-02-12 13:01:00,
2013-02-12 08:06:00,30.9,21.6,18.26,NW,321,0.0,0.0,68,0.00,,,0.00,WUHU216WMR968SP,2013-02-12 13:06:00,
2013-02-12 08:11:00,31.3,22.0,18.26,NW,321,0.0,0.0,68,0.00,,,0.00,WUHU216WMR968SP,2013-02-12 13:11:00,
2013-02-12 08:16:00,31.6,22.0,18.26,NW,314,0.0,0.0,67,0.00,,,0.00,WUHU216WMR968SP,2013-02-12 13:16:00,
2013-02-12 08:21:00,32.5,22.1,18.26,NW,317,0.0,0.0,65,0.00,,,0.00,WUHU216WMR968SP,2013-02-12 13:21:00,
2013-02-12 08:26:00,32.9,21.4,18.26,WNW,287,0.0,0.0,62,0.00,,,0.00,WUHU216WMR968SP,2013-02-12 13:26:00,
2013-02-12 08:31:00,33.8,20.6,18.26,NW,305,0.0,0.0,58,0.00,,,0.00,WUHU216WMR968SP,2013-02-12 13:31:00,
2013-02-12 08:36:00,34.7,20.6,18.26,NW,316,0.0,0.0,56,0.00,,,0.00,WUHU216WMR968SP,2013-02-12 13:36:00,
2013-02-12 08:41:00,35.1,21.4,18.26,NW,316,0.0,0.0,57,0.00,,,0.00,WUHU216WMR968SP,2013-02-12 13:41:00,
2013-02-12 08:46:00,35.6,20.1,18.26,NW,325,0.0,0.0,53,0.00,,,0.00,WUHU216WMR968SP,2013-02-12 13:46:00,
2013-02-12 08:52:00,36.0,20.0,18.26,NW,325,0.0,0.0,52,0.00,,,0.00,WUHU216WMR968SP,2013-02-12 13:52:00,
2013-02-12 08:57:00,36.3,17.9,18.26,WNW,294,0.0,0.0,47,0.00,,,0.00,WUHU216WMR968SP,2013-02-12 13:57:00,
2013-02-12 09:01:00,37.0,16.4,18.26,WNW,303,0.0,0.0,43,0.00,,,0.00,WUHU216WMR968SP,2013-02-12 14:01:00,
2013-02-12 09:06:00,37.8,17.1,18.26,NW,318,0.0,0.0,43,0.00,,,0.00,WUHU216WMR968SP,2013-02-12 14:06:00,
2013-02-12 09:11:00,38.1,17.4,18.26,NW,323,0.0,0.0,43,0.00,,,0.00,WUHU216WMR968SP,2013-02-12 14:11:00,
2013-02-12 09:16:00,38.8,17.5,18.26,NW,318,0.0,0.0,42,0.00,,,0.00,WUHU216WMR968SP,2013-02-12 14:16:00,
2013-02-12 09:22:00,39.2,16.7,18.26,NW,307,0.0,0.0,40,0.00,,,0.00,WUHU216WMR968SP,2013-02-12 14:22:00,
2013-02-12 09:27:00,39.9,16.7,18.26,NW,325,0.0,0.0,39,0.00,,,0.00,WUHU216WMR968SP,2013-02-12 14:27:00,
2013-02-12 09:32:00,40.1,16.9,18.26,WNW,287,0.0,0.0,39,0.00,,,0.00,WUHU216WMR968SP,2013-02-12 14:32:00,
2013-02-12 09:37:00,40.8,16.9,18.26,NW,326,0.0,0.0,38,0.00,,,0.00,WUHU216WMR968SP,2013-02-12 14:37:00,
2013-02-12 09:42:00,41.2,16.7,18.26,NW,323,0.0,0.0,37,0.00,,,0.00,WUHU216WMR968SP,2013-02-12 14:42:00,
2013-02-12 09:47:00,41.4,16.2,18.26,WNW,295,0.0,0.0,36,0.00,,,0.00,WUHU216WMR968SP,2013-02-12 14:47:00,
2013-02-12 09:52:00,41.5,16.3,18.26,NNW,338,0.0,2.7,36,0.00,,,0.00,WUHU216WMR968SP,2013-02-12 14:52:00,
2013-02-12 09:57:00,41.9,16.0,18.26,NW,320,0.0,2.7,35,0.00,,,0.00,WUHU216WMR968SP,2013-02-12 14:57:00,
2013-02-12 10:02:00,41.7,15.1,18.26,NW,310,0.0,0.0,34,0.00,,,0.00,WUHU216WMR968SP,2013-02-12 15:02:00,
2013-02-12 10:07:00,41.5,15.0,18.26,NW,320,0.0,0.0,34,0.00,,,0.00,WUHU216WMR968SP,2013-02-12 15:07:00,
2013-02-12 10:12:00,42.4,15.8,18.26,NW,322,0.0,0.0,34,0.00,,,0.00,WUHU216WMR968SP,2013-02-12 15:12:00,
2013-02-12 10:17:00,43.2,15.8,18.26,NW,318,0.0,0.0,33,0.00,,,0.00,WUHU216WMR968SP,2013-02-12 15:17:00,
2013-02-12 10:22:00,42.8,14.7,18.26,WNW,300,0.0,0.0,32,0.00,,,0.00,WUHU216WMR968SP,2013-02-12 15:22:00,
2013-02-12 10:27:00,42.3,15.0,18.26,NW,306,0.0,0.0,33,0.00,,,0.00,WUHU216WMR968SP,2013-02-12 15:27:00,
2013-02-12 10:32:00,42.6,15.2,18.26,NW,321,0.0,12.3,33,0.00,,,0.00,WUHU216WMR968SP,2013-02-12 15:32:00,
2013-02-12 10:37:00,43.0,14.9,18.26,WNW,288,0.0,12.8,32,0.00,,,0.00,WUHU216WMR968SP,2013-02-12 15:37:00,
2013-02-12 10:42:00,42.8,15.4,18.26,WNW,286,0.0,12.8,33,0.00,,,0.00,WUHU216WMR968SP,2013-02-12 15:42:00,
2013-02-12 10:47:00,42.6,14.5,18.26,WNW,285,0.0,12.3,32,0.00,,,0.00,WUHU216WMR968SP,2013-02-12 15:47:00,
2013-02-12 10:52:00,42.3,15.7,18.26,NW,313,0.0,14.1,34,0.00,,,0.00,WUHU216WMR968SP,2013-02-12 15:52:00,
2013-02-12 10:57:00,42.1,15.5,18.26,NW,316,6.3,14.1,34,0.00,,,0.00,WUHU216WMR968SP,2013-02-12 15:57:00,
2013-02-12 11:02:00,42.3,15.7,18.26,NW,314,0.0,10.1,34,0.00,,,0.00,WUHU216WMR968SP,2013-02-12 16:02:00,
2013-02-12 11:07:00,42.8,15.4,18.26,West,273,0.0,7.6,33,0.00,,,0.00,WUHU216WMR968SP,2013-02-12 16:07:00,
2013-02-12 11:12:00,43.0,15.6,18.26,WNW,302,0.0,14.5,33,0.00,,,0.00,WUHU216WMR968SP,2013-02-12 16:12:00,
2013-02-12 11:17:00,43.5,16.0,18.26,West,262,0.0,14.5,33,0.00,,,0.00,WUHU216WMR968SP,2013-02-12 16:17:00,
2013-02-12 11:22:00,43.3,15.2,18.26,NNW,327,0.0,0.0,32,0.00,,,0.00,WUHU216WMR968SP,2013-02-12 16:22:00,
2013-02-12 11:27:00,43.0,15.6,18.26,NW,310,0.0,0.0,33,0.00,,,0.00,WUHU216WMR968SP,2013-02-12 16:27:00,
2013-02-12 11:32:00,42.4,15.1,18.26,NW,319,0.0,8.7,33,0.00,,,0.00,WUHU216WMR968SP,2013-02-12 16:32:00,
2013-02-12 11:37:00,41.7,15.1,18.26,WNW,297,0.0,8.7,34,0.00,,,0.00,WUHU216WMR968SP,2013-02-12 16:37:00,
2013-02-12 11:42:00,41.7,15.1,18.26,WNW,295,0.0,0.0,34,0.00,,,0.00,WUHU216WMR968SP,2013-02-12 16:42:00,
2013-02-12 11:47:00,42.1,15.5,18.26,NW,322,4.9,15.4,34,0.00,,,0.00,WUHU216WMR968SP,2013-02-12 16:47:00,
2013-02-12 11:52:00,43.2,15.8,18.26,NW,325,10.5,20.1,33,0.00,,,0.00,WUHU216WMR968SP,2013-02-12 16:52:00,
2013-02-12 11:57:00,42.3,15.0,18.26,NW,309,0.0,20.1,33,0.00,,,0.00,WUHU216WMR968SP,2013-02-12 16:57:00,
2013-02-12 12:02:00,42.4,15.8,18.26,NW,312,0.0,13.2,34,0.00,,,0.00,WUHU216WMR968SP,2013-02-12 17:02:00,
2013-02-12 12:07:00,43.3,15.9,18.26,West,278,0.0,13.2,33,0.00,,,0.00,WUHU216WMR968SP,2013-02-12 17:07:00,
2013-02-12 12:12:00,43.0,15.6,18.26,NW,314,6.3,13.2,33,0.00,,,0.00,WUHU216WMR968SP,2013-02-12 17:12:00,
2013-02-12 12:17:00,43.3,15.9,18.26,WNW,289,0.0,13.2,33,0.00,,,0.00,WUHU216WMR968SP,2013-02-12 17:17:00,
2013-02-12 12:22:00,43.3,15.9,18.26,NNW,331,0.0,15.0,33,0.00,,,0.00,WUHU216WMR968SP,2013-02-12 17:22:00,
2013-02-12 12:27:00,43.3,15.9,18.26,NNW,330,0.0,15.0,33,0.00,,,0.00,WUHU216WMR968SP,2013-02-12 17:27:00,
2013-02-12 12:32:00,43.3,15.9,18.26,WNW,286,0.0,0.0,33,0.00,,,0.00,WUHU216WMR968SP,2013-02-12 17:32:00,
2013-02-12 12:37:00,43.3,15.9,18.26,NW,326,0.0,4.9,33,0.00,,,0.00,WUHU216WMR968SP,2013-02-12 17:37:00,
2013-02-12 12:42:00,42.8,15.4,18.26,NNW,342,0.0,4.9,33,0.00,,,0.00,WUHU216WMR968SP,2013-02-12 17:42:00,
2013-02-12 12:47:00,41.7,16.5,18.26,WNW,283,0.0,0.0,36,0.00,,,0.00,WUHU216WMR968SP,2013-02-12 17:47:00,
2013-02-12 12:52:00,41.9,16.6,18.26,WNW,296,0.0,7.2,36,0.00,,,0.00,WUHU216WMR968SP,2013-02-12 17:52:00,
2013-02-12 12:57:00,41.9,17.3,18.26,NW,310,0.0,8.7,37,0.00,,,0.00,WUHU216WMR968SP,2013-02-12 17:57:00,
2013-02-12 13:02:00,42.1,16.8,18.26,NNW,330,0.0,8.7,36,0.00,,,0.00,WUHU216WMR968SP,2013-02-12 18:02:00,
2013-02-12 13:07:00,42.3,17.0,18.26,NW,326,0.0,0.0,36,0.00,,,0.00,WUHU216WMR968SP,2013-02-12 18:07:00,
2013-02-12 13:12:00,41.9,16.6,18.26,WNW,289,0.0,0.0,36,0.00,,,0.00,WUHU216WMR968SP,2013-02-12 18:12:00,
2013-02-12 13:17:00,41.5,17.5,18.26,WNW,290,6.3,10.5,38,0.00,,,0.00,WUHU216WMR968SP,2013-02-12 18:17:00,
2013-02-12 13:22:00,41.2,17.3,18.26,NW,326,0.0,10.5,38,0.00,,,0.00,WUHU216WMR968SP,2013-02-12 18:22:00,
2013-02-12 13:27:00,40.8,17.5,18.26,WNW,300,0.0,10.5,39,0.00,,,0.00,WUHU216WMR968SP,2013-02-12 18:27:00,
2013-02-12 13:32:00,40.6,18.0,18.26,WNW,293,0.0,0.0,40,0.00,,,0.00,WUHU216WMR968SP,2013-02-12 18:32:00,
2013-02-12 13:37:00,40.5,17.3,18.26,WNW,297,0.0,0.0,39,0.00,,,0.00,WUHU216WMR968SP,2013-02-12 18:37:00,
2013-02-12 13:42:00,40.3,17.7,18.26,NW,326,0.0,2.2,40,0.00,,,0.00,WUHU216WMR968SP,2013-02-12 18:42:00,
2013-02-12 13:47:00,40.3,17.7,18.26,WNW,300,0.0,2.2,40,0.00,,,0.00,WUHU216WMR968SP,2013-02-12 18:47:00,
2013-02-12 13:52:00,40.3,17.1,18.26,NW,313,0.0,0.0,39,0.00,,,0.00,WUHU216WMR968SP,2013-02-12 18:52:00,
2013-02-12 13:57:00,40.5,17.3,18.26,NNW,328,0.0,0.0,39,0.00,,,0.00,WUHU216WMR968SP,2013-02-12 18:57:00,
2013-02-12 14:02:00,40.3,17.7,18.26,NW,306,0.0,0.0,40,0.00,,,0.00,WUHU216WMR968SP,2013-02-12 19:02:00,
2013-02-12 14:07:00,40.3,17.1,18.26,NW,317,0.0,0.0,39,0.00,,,0.00,WUHU216WMR968SP,2013-02-12 19:07:00,
2013-02-12 14:12:00,40.3,17.1,18.26,NW,313,0.0,0.0,39,0.00,,,0.00,WUHU216WMR968SP,2013-02-12 19:12:00,
2013-02-12 14:17:00,40.3,17.1,18.26,NW,306,0.0,0.0,39,0.00,,,0.00,WUHU216WMR968SP,2013-02-12 19:17:00,
2013-02-12 14:22:00,40.3,17.1,18.26,NW,325,0.0,0.0,39,0.00,,,0.00,WUHU216WMR968SP,2013-02-12 19:22:00,
2013-02-12 14:27:00,40.3,17.1,18.26,NW,323,0.0,0.0,39,0.00,,,0.00,WUHU216WMR968SP,2013-02-12 19:27:00,
2013-02-12 14:32:00,40.3,17.1,18.26,NNW,329,0.0,0.0,39,0.00,,,0.00,WUHU216WMR968SP,2013-02-12 19:32:00,
2013-02-12 14:37:00,40.3,17.1,18.26,NNW,332,0.0,0.0,39,0.00,,,0.00,WUHU216WMR968SP,2013-02-12 19:37:00,
2013-02-12 14:42:00,40.5,17.3,18.26,NW,304,0.0,0.0,39,0.00,,,0.00,WUHU216WMR968SP,2013-02-12 19:42:00,
2013-02-12 14:47:00,40.1,16.9,18.26,NW,326,0.0,0.0,39,0.00,,,0.00,WUHU216WMR968SP,2013-02-12 19:47:00,
2013-02-12 14:52:00,40.1,16.9,18.26,NW,326,0.0,0.0,39,0.00,,,0.00,WUHU216WMR968SP,2013-02-12 19:52:00,
2013-02-12 14:57:00,39.9,16.7,18.26,NW,313,0.0,0.0,39,0.00,,,0.00,WUHU216WMR968SP,2013-02-12 19:57:00,
2013-02-12 15:02:00,39.7,16.5,18.26,NW,309,0.0,0.0,39,0.00,,,0.00,WUHU216WMR968SP,2013-02-12 20:02:00,
2013-02-12 15:07:00,39.7,16.5,18.26,NNW,333,0.0,0.0,39,0.00,,,0.00,WUHU216WMR968SP,2013-02-12 20:07:00,
2013-02-12 15:12:00,39.6,16.5,18.26,NNW,327,0.0,0.0,39,0.00,,,0.00,WUHU216WMR968SP,2013-02-12 20:12:00,
2013-02-12 15:17:00,39.4,16.3,18.26,NW,324,0.0,0.0,39,0.00,,,0.00,WUHU216WMR968SP,2013-02-12 20:17:00,
2013-02-12 15:22:00,39.2,16.1,18.26,NNW,327,0.0,0.0,39,0.00,,,0.00,WUHU216WMR968SP,2013-02-12 20:22:00,
2013-02-12 15:27:00,39.2,16.1,18.26,NW,316,0.0,0.0,39,0.00,,,0.00,WUHU216WMR968SP,2013-02-12 20:27:00,
2013-02-12 15:32:00,39.4,16.3,18.26,NNW,328,0.0,0.0,39,0.00,,,0.00,WUHU216WMR968SP,2013-02-12 20:32:00,
2013-02-12 15:37:00,39.4,16.3,18.26,NW,325,0.0,0.0,39,0.00,,,0.00,WUHU216WMR968SP,2013-02-12 20:37:00,
2013-02-12 15:42:00,39.2,16.1,18.26,NNW,327,0.0,0.0,39,0.00,,,0.00,WUHU216WMR968SP,2013-02-12 20:42:00,
2013-02-12 15:47:00,39.0,16.5,18.26,North,353,0.0,0.0,40,0.00,,,0.00,WUHU216WMR968SP,2013-02-12 20:47:00,
2013-02-12 15:52:00,39.0,16.5,18.26,NW,312,0.0,0.0,40,0.00,,,0.00,WUHU216WMR968SP,2013-02-12 20:52:00,
2013-02-12 15:57:00,38.8,16.3,18.26,NW,322,0.0,0.0,40,0.00,,,0.00,WUHU216WMR968SP,2013-02-12 20:57:00,
2013-02-12 16:02:00,38.7,16.2,18.26,WNW,300,0.0,0.0,40,0.00,,,0.00,WUHU216WMR968SP,2013-02-12 21:02:00,
2013-02-12 16:07:00,38.7,16.2,18.26,WNW,296,0.0,0.0,40,0.00,,,0.00,WUHU216WMR968SP,2013-02-12 21:07:00,
2013-02-12 16:12:00,38.5,16.1,18.26,NW,318,0.0,0.0,40,0.00,,,0.00,WUHU216WMR968SP,2013-02-12 21:12:00,
2013-02-12 16:18:00,38.5,16.1,18.26,NW,313,0.0,0.0,40,0.00,,,0.00,WUHU216WMR968SP,2013-02-12 21:18:00,
2013-02-12 16:23:00,38.3,16.5,18.26,WNW,289,0.0,0.0,41,0.00,,,0.00,WUHU216WMR968SP,2013-02-12 21:23:00,
2013-02-12 16:28:00,38.1,16.3,18.26,NW,313,0.0,0.0,41,0.00,,,0.00,WUHU216WMR968SP,2013-02-12 21:28:00,
2013-02-12 16:33:00,38.1,16.3,18.26,NW,312,0.0,0.0,41,0.00,,,0.00,WUHU216WMR968SP,2013-02-12 21:33:00,
2013-02-12 16:38:00,38.1,16.3,18.26,WNW,295,0.0,0.0,41,0.00,,,0.00,WUHU216WMR968SP,2013-02-12 21:38:00,
2013-02-12 16:43:00,38.1,16.3,18.26,WNW,294,0.0,0.0,41,0.00,,,0.00,WUHU216WMR968SP,2013-02-12 21:43:00,
2013-02-12 16:48:00,38.1,16.3,18.26,NW,319,0.0,0.0,41,0.00,,,0.00,WUHU216WMR968SP,2013-02-12 21:48:00,
2013-02-12 16:53:00,37.9,16.1,18.26,NNW,330,0.0,0.0,41,0.00,,,0.00,WUHU216WMR968SP,2013-02-12 21:53:00,
2013-02-12 16:58:00,37.8,16.6,18.26,NW,307,0.0,0.0,42,0.00,,,0.00,WUHU216WMR968SP,2013-02-12 21:58:00,
2013-02-12 17:03:00,37.8,16.6,18.26,NW,316,0.0,0.0,42,0.00,,,0.00,WUHU216WMR968SP,2013-02-12 22:03:00,
2013-02-12 17:08:00,37.8,16.6,18.26,WNW,293,0.0,0.0,42,0.00,,,0.00,WUHU216WMR968SP,2013-02-12 22:08:00,
2013-02-12 17:13:00,37.6,16.4,18.26,NW,317,0.0,0.0,42,0.00,,,0.00,WUHU216WMR968SP,2013-02-12 22:13:00,
2013-02-12 17:18:00,37.4,16.2,18.26,NNW,330,0.0,0.0,42,0.00,,,0.00,WUHU216WMR968SP,2013-02-12 22:18:00,
2013-02-12 17:23:00,37.4,16.2,18.26,WNW,292,0.0,0.0,42,0.00,,,0.00,WUHU216WMR968SP,2013-02-12 22:23:00,
2013-02-12 17:28:00,37.2,16.6,18.26,NW,326,0.0,0.0,43,0.00,,,0.00,WUHU216WMR968SP,2013-02-12 22:28:00,
2013-02-12 17:33:00,37.4,17.3,18.26,NW,324,0.0,0.0,44,0.00,,,0.00,WUHU216WMR968SP,2013-02-12 22:33:00,
2013-02-12 17:38:00,37.0,16.4,18.26,NW,319,0.0,0.0,43,0.00,,,0.00,WUHU216WMR968SP,2013-02-12 22:38:00,
2013-02-12 17:43:00,37.2,17.1,18.26,NW,313,0.0,0.0,44,0.00,,,0.00,WUHU216WMR968SP,2013-02-12 22:43:00,
2013-02-12 17:47:00,37.0,17.0,18.26,NW,320,0.0,0.0,44,0.00,,,0.00,WUHU216WMR968SP,2013-02-12 22:47:00,
2013-02-12 17:52:00,37.2,16.6,18.26,NW,326,0.0,0.0,43,0.00,,,0.00,WUHU216WMR968SP,2013-02-12 22:52:00,
2013-02-12 17:58:00,37.2,17.1,18.26,NW,325,0.0,0.0,44,0.00,,,0.00,WUHU216WMR968SP,2013-02-12 22:58:00,
2013-02-12 18:02:00,37.0,17.0,18.26,WNW,287,0.0,0.0,44,0.00,,,0.00,WUHU216WMR968SP,2013-02-12 23:02:00,
2013-02-12 18:07:00,37.2,17.1,18.26,NW,310,0.0,0.0,44,0.00,,,0.00,WUHU216WMR968SP,2013-02-12 23:07:00,
2013-02-12 18:13:00,37.0,17.0,18.26,North,3,0.0,0.0,44,0.00,,,0.00,WUHU216WMR968SP,2013-02-12 23:13:00,
2013-02-12 18:18:00,37.0,16.4,18.26,NW,324,0.0,0.0,43,0.00,,,0.00,WUHU216WMR968SP,2013-02-12 23:18:00,
2013-02-12 18:23:00,37.0,17.0,18.26,NW,313,0.0,0.0,44,0.00,,,0.00,WUHU216WMR968SP,2013-02-12 23:23:00,
2013-02-12 18:28:00,37.0,17.0,18.26,NW,312,0.0,0.0,44,0.00,,,0.00,WUHU216WMR968SP,2013-02-12 23:28:00,
2013-02-12 18:33:00,37.0,17.0,18.26,NW,326,0.0,0.0,44,0.00,,,0.00,WUHU216WMR968SP,2013-02-12 23:33:00,
2013-02-12 18:38:00,36.9,16.3,18.26,NW,324,0.0,0.0,43,0.00,,,0.00,WUHU216WMR968SP,2013-02-12 23:38:00,
2013-02-12 18:42:00,36.9,16.9,18.26,NW,319,0.0,0.0,44,0.00,,,0.00,WUHU216WMR968SP,2013-02-12 23:42:00,
2013-02-12 18:48:00,36.9,16.9,18.26,NW,310,0.0,0.0,44,0.00,,,0.00,WUHU216WMR968SP,2013-02-12 23:48:00,
2013-02-12 18:53:00,36.9,16.9,18.26,NW,319,0.0,0.0,44,0.00,,,0.00,WUHU216WMR968SP,2013-02-12 23:53:00,
2013-02-12 18:58:00,36.7,17.2,18.26,WNW,299,0.0,0.0,45,0.00,,,0.00,WUHU216WMR968SP,2013-02-12 23:58:00,
2013-02-12 19:03:00,36.7,17.2,18.26,NW,313,0.0,0.0,45,0.00,,,0.00,WUHU216WMR968SP,2013-02-13 00:03:00,
2013-02-12 19:08:00,36.7,17.2,18.26,NW,313,0.0,0.0,45,0.00,,,0.00,WUHU216WMR968SP,2013-02-13 00:08:00,
2013-02-12 19:13:00,36.5,16.5,18.26,NW,321,0.0,0.0,44,0.00,,,0.00,WUHU216WMR968SP,2013-02-13 00:13:00,
2013-02-12 19:18:00,36.3,16.8,18.26,NW,324,0.0,0.0,45,0.00,,,0.00,WUHU216WMR968SP,2013-02-13 00:18:00,
2013-02-12 19:23:00,36.1,17.2,18.26,NW,315,0.0,0.0,46,0.00,,,0.00,WUHU216WMR968SP,2013-02-13 00:23:00,
2013-02-12 19:28:00,36.1,17.2,18.26,NW,311,0.0,0.0,46,0.00,,,0.00,WUHU216WMR968SP,2013-02-13 00:28:00,
2013-02-12 19:33:00,36.1,17.2,18.26,NNW,327,0.0,0.0,46,0.00,,,0.00,WUHU216WMR968SP,2013-02-13 00:33:00,
2013-02-12 19:38:00,36.1,17.2,18.26,NW,314,0.0,0.0,46,0.00,,,0.00,WUHU216WMR968SP,2013-02-13 00:38:00,
2013-02-12 19:43:00,36.0,17.1,18.26,NNW,329,0.0,0.0,46,0.00,,,0.00,WUHU216WMR968SP,2013-02-13 00:43:00,
2013-02-12 19:48:00,36.1,17.2,18.26,NW,325,0.0,0.0,46,0.00,,,0.00,WUHU216WMR968SP,2013-02-13 00:48:00,
2013-02-12 19:53:00,36.0,17.1,18.26,NW,326,0.0,0.0,46,0.00,,,0.00,WUHU216WMR968SP,2013-02-13 00:53:00,
2013-02-12 19:58:00,35.8,16.4,18.26,NW,321,0.0,0.0,45,0.00,,,0.00,WUHU216WMR968SP,2013-02-13 00:58:00,
2013-02-12 20:03:00,35.8,16.9,18.26,NW,320,0.0,0.0,46,0.00,,,0.00,WUHU216WMR968SP,2013-02-13 01:03:00,
2013-02-12 20:07:00,35.8,16.9,18.26,NW,317,0.0,0.0,46,0.00,,,0.00,WUHU216WMR968SP,2013-02-13 01:07:00,
2013-02-12 20:12:00,35.8,16.4,18.26,NW,323,0.0,0.0,45,0.00,,,0.00,WUHU216WMR968SP,2013-02-13 01:12:00,
2013-02-12 20:17:00,35.8,16.9,18.26,NW,319,0.0,0.0,46,0.00,,,0.00,WUHU216WMR968SP,2013-02-13 01:17:00,
2013-02-12 20:22:00,35.8,16.4,18.26,NNW,328,0.0,0.0,45,0.00,,,0.00,WUHU216WMR968SP,2013-02-13 01:22:00,
2013-02-12 20:27:00,35.8,15.9,18.26,NW,323,0.0,0.0,44,0.00,,,0.00,WUHU216WMR968SP,2013-02-13 01:27:00,
2013-02-12 20:32:00,35.8,16.4,18.26,NW,311,0.0,0.0,45,0.00,,,0.00,WUHU216WMR968SP,2013-02-13 01:32:00,
2013-02-12 20:37:00,35.8,16.4,18.26,NW,312,0.0,0.0,45,0.00,,,0.00,WUHU216WMR968SP,2013-02-13 01:37:00,
2013-02-12 20:42:00,35.6,15.7,18.26,NW,312,0.0,0.0,44,0.00,,,0.00,WUHU216WMR968SP,2013-02-13 01:42:00,
2013-02-12 20:47:00,35.6,15.7,18.26,WNW,293,0.0,0.0,44,0.00,,,0.00,WUHU216WMR968SP,2013-02-13 01:47:00,
2013-02-12 20:52:00,35.6,15.7,18.26,NW,318,0.0,0.0,44,0.00,,,0.00,WUHU216WMR968SP,2013-02-13 01:52:00,
2013-02-12 20:57:00,35.6,16.2,18.26,NW,305,0.0,0.0,45,0.00,,,0.00,WUHU216WMR968SP,2013-02-13 01:57:00,
2013-02-12 21:02:00,35.6,15.7,18.26,NW,319,0.0,2.7,44,0.00,,,0.00,WUHU216WMR968SP,2013-02-13 02:02:00,
2013-02-12 21:07:00,35.8,15.9,18.26,NW,322,0.0,2.7,44,0.00,,,0.00,WUHU216WMR968SP,2013-02-13 02:07:00,
2013-02-12 21:12:00,35.6,15.7,18.26,WNW,286,0.0,0.0,44,0.00,,,0.00,WUHU216WMR968SP,2013-02-13 02:12:00,
2013-02-12 21:17:00,35.6,15.7,18.26,NW,318,0.0,0.0,44,0.00,,,0.00,WUHU216WMR968SP,2013-02-13 02:17:00,
2013-02-12 21:22:00,35.4,14.9,18.26,NW,307,0.0,0.0,43,0.00,,,0.00,WUHU216WMR968SP,2013-02-13 02:22:00,
2013-02-12 21:27:00,35.4,14.9,18.26,NW,319,0.0,0.0,43,0.00,,,0.00,WUHU216WMR968SP,2013-02-13 02:27:00,
2013-02-12 21:32:00,35.4,14.9,18.26,NW,319,0.0,0.0,43,0.00,,,0.00,WUHU216WMR968SP,2013-02-13 02:32:00,
2013-02-12 21:37:00,35.2,14.8,18.26,NW,326,0.0,0.0,43,0.00,,,0.00,WUHU216WMR968SP,2013-02-13 02:37:00,
2013-02-12 21:42:00,35.2,15.3,18.26,NW,317,0.0,0.0,44,0.00,,,0.00,WUHU216WMR968SP,2013-02-13 02:42:00,
2013-02-12 21:47:00,35.2,15.3,18.26,NW,308,0.0,0.0,44,0.00,,,0.00,WUHU216WMR968SP,2013-02-13 02:47:00,
2013-02-12 21:52:00,35.1,15.2,18.26,NNW,329,0.0,0.0,44,0.00,,,0.00,WUHU216WMR968SP,2013-02-13 02:52:00,
2013-02-12 21:57:00,35.1,15.2,18.26,NW,322,0.0,0.0,44,0.00,,,0.00,WUHU216WMR968SP,2013-02-13 02:57:00,
2013-02-12 22:02:00,35.1,15.7,18.26,NW,322,0.0,0.0,45,0.00,,,0.00,WUHU216WMR968SP,2013-02-13 03:02:00,
2013-02-12 22:07:00,34.9,15.6,18.26,NW,323,0.0,0.0,45,0.00,,,0.00,WUHU216WMR968SP,2013-02-13 03:07:00,
2013-02-12 22:12:00,34.7,15.4,18.26,NNW,327,0.0,0.0,45,0.00,,,0.00,WUHU216WMR968SP,2013-02-13 03:12:00,
2013-02-12 22:17:00,34.9,15.6,18.26,WNW,290,0.0,0.0,45,0.00,,,0.00,WUHU216WMR968SP,2013-02-13 03:17:00,
2013-02-12 22:22:00,34.9,15.6,18.26,NW,322,0.0,0.0,45,0.00,,,0.00,WUHU216WMR968SP,2013-02-13 03:22:00,
2013-02-12 22:27:00,34.7,14.9,18.26,WNW,295,0.0,0.0,44,0.00,,,0.00,WUHU216WMR968SP,2013-02-13 03:27:00,
2013-02-12 22:32:00,34.7,15.4,18.26,NW,323,0.0,0.0,45,0.00,,,0.00,WUHU216WMR968SP,2013-02-13 03:32:00,
2013-02-12 22:38:00,34.5,14.7,18.26,NE,46,0.0,0.0,44,0.00,,,0.00,WUHU216WMR968SP,2013-02-13 03:38:00,
2013-02-12 22:43:00,34.3,14.5,18.26,WNW,289,0.0,0.0,44,0.00,,,0.00,WUHU216WMR968SP,2013-02-13 03:43:00,
2013-02-12 22:48:00,34.3,14.5,18.26,NNW,327,0.0,0.0,44,0.00,,,0.00,WUHU216WMR968SP,2013-02-13 03:48:00,
2013-02-12 22:53:00,34.5,14.7,18.26,NW,308,0.0,0.0,44,0.00,,,0.00,WUHU216WMR968SP,2013-02-13 03:53:00,
2013-02-12 22:58:00,34.3,14.5,18.26,NNW,331,0.0,0.0,44,0.00,,,0.00,WUHU216WMR968SP,2013-02-13 03:58:00,
2013-02-12 23:03:00,34.3,14.5,18.26,NW,317,0.0,0.0,44,0.00,,,0.00,WUHU216WMR968SP,2013-02-13 04:03:00,
2013-02-12 23:08:00,34.3,13.9,18.26,WNW,286,0.0,0.0,43,0.00,,,0.00,WUHU216WMR968SP,2013-02-13 04:08:00,
2013-02-12 23:13:00,34.3,14.5,18.26,NNW,327,0.0,0.0,44,0.00,,,0.00,WUHU216WMR968SP,2013-02-13 04:13:00,
2013-02-12 23:18:00,34.0,14.2,18.26,NW,310,0.0,0.0,44,0.00,,,0.00,WUHU216WMR968SP,2013-02-13 04:18:00,
2013-02-12 23:23:00,33.6,13.8,18.26,NNW,331,0.0,0.0,44,0.00,,,0.00,WUHU216WMR968SP,2013-02-13 04:23:00,
2013-02-12 23:28:00,33.4,14.2,18.26,NW,320,0.0,0.0,45,0.00,,,0.00,WUHU216WMR968SP,2013-02-13 04:28:00,
2013-02-12 23:33:00,33.4,14.2,18.26,NW,306,0.0,0.0,45,0.00,,,0.00,WUHU216WMR968SP,2013-02-13 04:33:00,
2013-02-12 23:38:00,33.3,14.6,18.26,NW,317,0.0,0.0,46,0.00,,,0.00,WUHU216WMR968SP,2013-02-13 04:38:00,
2013-02-12 23:43:00,33.3,14.1,18.26,NW,321,0.0,0.0,45,0.00,,,0.00,WUHU216WMR968SP,2013-02-13 04:43:00,
2013-02-12 23:48:00,33.3,14.1,18.26,NW,310,0.0,0.0,45,0.00,,,0.00,WUHU216WMR968SP,2013-02-13 04:48:00,
2013-02-12 23:53:00,33.3,13.6,18.26,WNW,303,0.0,0.0,44,0.00,,,0.00,WUHU216WMR968SP,2013-02-13 04:53:00,
2013-02-12 23:58:00,33.6,13.3,18.26,NW,325,0.0,0.0,43,0.00,,,0.00,WUHU216WMR968SP,2013-02-13 04:58:00,